Tiempo cada hora Murici

Hoy, 24 Octubre, Sábado

Tiempo Temperatura Precipitaciones Viento Presión Humedad
00:00 +24°C° 0.1 mm 1 mps 752 mmHg 95%
01:00 +24°C° 0.1 mm 1 mps 752 mmHg 95%
02:00 +24°C° 0.2 mm 1 mps 752 mmHg 95%
03:00 +24°C° 0.2 mm 2 mps 751 mmHg 95%
04:00 +25°C° 0.2 mm 2 mps 751 mmHg 95%
05:00 +25°C° 0.1 mm 2 mps 751 mmHg 94%
06:00 +25°C° 0.1 mm 2 mps 752 mmHg 92%
07:00 +25°C° 0.1 mm 2 mps 752 mmHg 91%
08:00 +27°C° 0.1 mm 3 mps 752 mmHg 81%
09:00 +29°C° 0.1 mm 4 mps 753 mmHg 71%
10:00 +30°C° 0.1 mm 4 mps 753 mmHg 60%
11:00 +32°C° 0 mm 4 mps 753 mmHg 59%
12:00 +32°C° 0 mm 4 mps 752 mmHg 58%
13:00 +32°C° 0 mm 4 mps 752 mmHg 57%
14:00 +32°C° 0 mm 4 mps 752 mmHg 56%
15:00 +32°C° 0 mm 4 mps 751 mmHg 56%
16:00 +32°C° 0 mm 5 mps 750 mmHg 55%
17:00 +29°C° 0 mm 4 mps 751 mmHg 64%
18:00 +28°C° 0 mm 3 mps 751 mmHg 74%
19:00 +26°C° 0 mm 2 mps 751 mmHg 83%
20:00 +25°C° 0 mm 2 mps 751 mmHg 87%
21:00 +24°C° 0 mm 2 mps 752 mmHg 91%
22:00 +24°C° 0 mm 1 mps 752 mmHg 94%
23:00 +24°C° 0 mm 1 mps 752 mmHg 94%

Mañana, 25 Octubre, Domingo

Tiempo Temperatura Precipitaciones Viento Presión Humedad
00:00 +23°C° 0 mm 1 mps 751 mmHg 95%
01:00 +23°C° 0 mm 1 mps 751 mmHg 95%
02:00 +23°C° 0 mm 1 mps 751 mmHg 95%
03:00 +23°C° 0 mm 1 mps 750 mmHg 95%
04:00 +23°C° 0 mm 1 mps 750 mmHg 95%
05:00 +23°C° 0 mm 1 mps 751 mmHg 93%
06:00 +22°C° 0 mm 0 mps 751 mmHg 91%
07:00 +23°C° 0 mm 0 mps 751 mmHg 90%
08:00 +27°C° 0.1 mm 2 mps 752 mmHg 81%
09:00 +29°C° 0.1 mm 3 mps 752 mmHg 72%
10:00 +32°C° 0.1 mm 4 mps 752 mmHg 64%
11:00 +33°C° 0.1 mm 4 mps 752 mmHg 59%
12:00 +34°C° 0.1 mm 5 mps 751 mmHg 55%
13:00 +35°C° 0.1 mm 5 mps 751 mmHg 50%
14:00 +35°C° 0 mm 5 mps 750 mmHg 52%
15:00 +34°C° 0 mm 5 mps 750 mmHg 53%
16:00 +34°C° 0 mm 5 mps 749 mmHg 55%
17:00 +32°C° 0 mm 5 mps 749 mmHg 63%
18:00 +29°C° 0 mm 4 mps 750 mmHg 70%
19:00 +27°C° 0 mm 4 mps 750 mmHg 78%
20:00 +26°C° 0 mm 4 mps 751 mmHg 82%
21:00 +26°C° 0 mm 3 mps 751 mmHg 87%
22:00 +25°C° 0 mm 3 mps 751 mmHg 91%
23:00 +25°C° 0 mm 3 mps 751 mmHg 93%

Pasado mañana, 26 Octubre, Lunes

Tiempo Temperatura Precipitaciones Viento Presión Humedad
00:00 +24°C° 0 mm 3 mps 751 mmHg 94%
01:00 +24°C° 0 mm 3 mps 750 mmHg 95%
02:00 +24°C° 0 mm 3 mps 750 mmHg 96%
03:00 +24°C° 0 mm 2 mps 750 mmHg 96%
04:00 +24°C° 0 mm 2 mps 750 mmHg 97%
05:00 +24°C° 0 mm 3 mps 750 mmHg 94%
06:00 +25°C° 0 mm 3 mps 750 mmHg 90%
07:00 +26°C° 0 mm 4 mps 751 mmHg 87%
08:00 +28°C° 0 mm 5 mps 751 mmHg 76%
09:00 +30°C° 0 mm 5 mps 751 mmHg 66%
10:00 +33°C° 0 mm 6 mps 751 mmHg 55%
11:00 +34°C° 0 mm 6 mps 751 mmHg 51%
12:00 +36°C° 0 mm 6 mps 750 mmHg 46%
13:00 +38°C° 0 mm 6 mps 749 mmHg 41%
14:00 +36°C° 0 mm 6 mps 749 mmHg 44%
15:00 +36°C° 0 mm 6 mps 748 mmHg 46%
16:00 +35°C° 0 mm 7 mps 748 mmHg 48%
17:00 +33°C° 0 mm 6 mps 748 mmHg 57%
18:00 +30°C° 0 mm 6 mps 748 mmHg 66%
19:00 +27°C° 0 mm 6 mps 749 mmHg 74%
20:00 +26°C° 0 mm 5 mps 749 mmHg 78%
21:00 +26°C° 0 mm 4 mps 750 mmHg 82%
22:00 +25°C° 0 mm 4 mps 750 mmHg 86%
23:00 +25°C° 0 mm 3 mps 750 mmHg 88%

, 27 Octubre, Martes

Tiempo Temperatura Precipitaciones Viento Presión Humedad
00:00 +24°C° 0 mm 3 mps 750 mmHg 90%
01:00 +24°C° 0 mm 3 mps 750 mmHg 92%
02:00 +24°C° 0 mm 3 mps 749 mmHg 90%
03:00 +24°C° 0 mm 3 mps 749 mmHg 89%
04:00 +25°C° 0 mm 3 mps 749 mmHg 87%
05:00 +25°C° 0 mm 3 mps 750 mmHg 84%
06:00 +26°C° 0 mm 3 mps 750 mmHg 80%
07:00 +26°C° 0 mm 3 mps 751 mmHg 77%
08:00 +28°C° 0 mm 3 mps 751 mmHg 69%
09:00 +30°C° 0 mm 4 mps 751 mmHg 60%
10:00 +33°C° 0 mm 4 mps 752 mmHg 52%
11:00 +34°C° 0 mm 4 mps 751 mmHg 49%
12:00 +35°C° 0 mm 5 mps 750 mmHg 47%
13:00 +36°C° 0 mm 5 mps 750 mmHg 44%
14:00 +35°C° 0 mm 5 mps 749 mmHg 46%
15:00 +35°C° 0 mm 6 mps 749 mmHg 47%
16:00 +34°C° 0 mm 6 mps 748 mmHg 49%
17:00 +32°C° 0 mm 6 mps 748 mmHg 57%
18:00 +29°C° 0 mm 5 mps 748 mmHg 64%
19:00 +27°C° 0 mm 5 mps 749 mmHg 72%
20:00 +26°C° 0 mm 4 mps 749 mmHg 77%
21:00 +25°C° 0 mm 3 mps 750 mmHg 83%
22:00 +25°C° 0 mm 3 mps 750 mmHg 88%
23:00 +24°C° 0 mm 3 mps 750 mmHg 89%

27 Octubre, Martes

Tiempo Temperatura Precipitaciones Viento Presión Humedad
00:00 +24°C° 0 mm 3 mps 750 mmHg 90%
01:00 +24°C° 0 mm 3 mps 750 mmHg 92%
02:00 +24°C° 0 mm 3 mps 749 mmHg 90%
03:00 +24°C° 0 mm 3 mps 749 mmHg 89%
04:00 +25°C° 0 mm 3 mps 749 mmHg 87%
05:00 +25°C° 0 mm 3 mps 750 mmHg 84%
06:00 +26°C° 0 mm 3 mps 750 mmHg 80%
07:00 +26°C° 0 mm 3 mps 751 mmHg 77%
08:00 +28°C° 0 mm 3 mps 751 mmHg 69%
09:00 +30°C° 0 mm 4 mps 751 mmHg 60%
10:00 +33°C° 0 mm 4 mps 752 mmHg 52%
11:00 +34°C° 0 mm 4 mps 751 mmHg 49%
12:00 +35°C° 0 mm 5 mps 750 mmHg 47%
13:00 +36°C° 0 mm 5 mps 750 mmHg 44%
14:00 +35°C° 0 mm 5 mps 749 mmHg 46%
15:00 +35°C° 0 mm 6 mps 749 mmHg 47%
16:00 +34°C° 0 mm 6 mps 748 mmHg 49%
17:00 +32°C° 0 mm 6 mps 748 mmHg 57%
18:00 +29°C° 0 mm 5 mps 748 mmHg 64%
19:00 +27°C° 0 mm 5 mps 749 mmHg 72%
20:00 +26°C° 0 mm 4 mps 749 mmHg 77%
21:00 +25°C° 0 mm 3 mps 750 mmHg 83%
22:00 +25°C° 0 mm 3 mps 750 mmHg 88%
23:00 +24°C° 0 mm 3 mps 750 mmHg 89%

28 Octubre, Miércoles

Tiempo Temperatura Precipitaciones Viento Presión Humedad
00:00 +24°C° 0 mm 3 mps 750 mmHg 91%
01:00 +24°C° 0 mm 3 mps 749 mmHg 92%
02:00 +24°C° 0 mm 2 mps 749 mmHg 93%
03:00 +24°C° 0 mm 2 mps 749 mmHg 93%
04:00 +24°C° 0 mm 2 mps 749 mmHg 94%
05:00 +24°C° 0 mm 2 mps 750 mmHg 91%
06:00 +25°C° 0 mm 2 mps 750 mmHg 89%
07:00 +25°C° 0 mm 3 mps 750 mmHg 86%
08:00 +27°C° 0 mm 4 mps 751 mmHg 77%
09:00 +29°C° 0 mm 4 mps 751 mmHg 67%
10:00 +32°C° 0 mm 5 mps 751 mmHg 58%
11:00 +33°C° 0 mm 5 mps 751 mmHg 54%
12:00 +34°C° 0 mm 6 mps 750 mmHg 50%
13:00 +35°C° 0 mm 6 mps 750 mmHg 46%
14:00 +34°C° 0 mm 6 mps 749 mmHg 48%
15:00 +34°C° 0 mm 6 mps 749 mmHg 49%
16:00 +33°C° 0 mm 6 mps 748 mmHg 51%
17:00 +30°C° 0 mm 5 mps 749 mmHg 59%
18:00 +28°C° 0 mm 5 mps 749 mmHg 68%
19:00 +26°C° 0 mm 4 mps 750 mmHg 76%
20:00 +25°C° 0 mm 3 mps 750 mmHg 81%
21:00 +25°C° 0 mm 3 mps 750 mmHg 86%
22:00 +24°C° 0 mm 2 mps 751 mmHg 91%
23:00 +23°C° 0 mm 2 mps 750 mmHg 92%

29 Octubre, Jueves

Tiempo Temperatura Precipitaciones Viento Presión Humedad
00:00 +23°C° 0 mm 2 mps 750 mmHg 93%
01:00 +23°C° 0 mm 2 mps 750 mmHg 94%
02:00 +23°C° 0 mm 2 mps 750 mmHg 94%
03:00 +23°C° 0 mm 1 mps 749 mmHg 95%
04:00 +23°C° 0 mm 1 mps 749 mmHg 95%
05:00 +24°C° 0 mm 2 mps 750 mmHg 92%
06:00 +24°C° 0 mm 2 mps 750 mmHg 89%
07:00 +25°C° 0 mm 3 mps 751 mmHg 86%
08:00 +28°C° 0 mm 3 mps 751 mmHg 74%
09:00 +30°C° 0 mm 4 mps 752 mmHg 62%
10:00 +33°C° 0 mm 5 mps 752 mmHg 50%
11:00 +34°C° 0 mm 5 mps 752 mmHg 49%
12:00 +34°C° 0 mm 5 mps 751 mmHg 48%
13:00 +35°C° 0 mm 6 mps 751 mmHg 46%
14:00 +35°C° 0 mm 6 mps 750 mmHg 46%
15:00 +34°C° 0 mm 6 mps 750 mmHg 47%
16:00 +34°C° 0 mm 6 mps 749 mmHg 47%
17:00 +32°C° 0 mm 5 mps 750 mmHg 56%
18:00 +29°C° 0 mm 5 mps 750 mmHg 66%
19:00 +27°C° 0 mm 4 mps 751 mmHg 76%
20:00 +26°C° 0 mm 3 mps 751 mmHg 81%
21:00 +25°C° 0 mm 3 mps 752 mmHg 85%
22:00 +24°C° 0 mm 2 mps 752 mmHg 90%
23:00 +24°C° 0 mm 2 mps 752 mmHg 92%
Mostrar más

Necesitamos Su Consentimiento

Meteoprog y nuestros Proveedores de Servicios pueden almacenar y acceder a sus datos personales como cookies, identificadores de dispositivo u otras tecnologías similares de su dispositivo y procesar dichos datos para personalizar contenido y anuncios, además de ofrecer funciones de redes sociales y analizar el tráfico.

  • Almacenar y/o acceder a información en su dispositivo

    Se puede almacenar o acceder a cookies, identificadores de dispositivo u otra información de su dispositivo para los fines anteriormente indicados.

  • Anuncios y contenido personalizados, medición de anuncios y contenido, percepciones del público, y desarrollo de productos

    Los anuncios y el contenido pueden personalizarse en base a su perfil. Se pueden añadir más datos para personalizar mejor los anuncios y contenidos. Se puede medir el rendimiento de los anuncios y contenidos. Se puede obtener la percepción sobre el público que ha visto los anuncios y contenidos. Dichos datos pueden usarse para desarrollar o mejorar la experiencia del usuario, sistemas y software.

Al hacer clic en ‘Estoy De Acuerdo’ usted permitirá el uso de las cookies, identificadores de dispositivo, balizas web u otras tecnologías similares indicadas. Su configuración puede cambiarse desde el navegador de su dispositivo.

Para ciertos fines, los intereses legítimos pueden ser considerados por encima del consentimiento. Puede leer más sobre ello en nuestra Política de Privacidad y Cookies.